BREEZE-M DEB (TANK), 36103

Orbit data source: Space-Track

BREEZE-M DEB (TANK), 36103 is space debris in HEO originally from a launch on Tue, 24 Nov 2009 UTC launched from the Tyuratam Missile And Space Complex (TTMTR). Debris objects in space refer to the collection of defunct objects orbiting the Earth. Examples of debris include non-operational satellites, rocket bodies, and fragments generated from explosions, collisions, or faulty payload assembly.

Loading next visibility...
Identifier
36103, 2009-065C
Orbit
HEO
Last TLE update
1 day ago
Origin
Manufacturer
Khrunichev
Mission
Spacecraft
Bus & Motor
BRIZ TANK, Unknown motor
Mass
~1,000 kg wet, 1,000 kg dry
Launch date (UTC)
2009-11-24 (16 years ago)
Launch vehicle
Unknown
Launch site
Tyuratam Missile And Space Complex (TTMTR)
Object type
Payload
Rocket body
Debris
Shape & HBR
Torus, 4 m
Radar Cross Section
8.218 m², Large (>1 m²)

Expand to show TLE details & history

TLE from 1 day ago
0 BREEZE-M DEB (TANK)
1 36103U 09065C   25189.39641319  .00002218  00000-0  50750-3 0  9997
2 36103  49.3557 319.6431 5222230  77.5997 333.9718  5.23778257290039
Epoch: 2025-07-08T09:30Z
TLE epoch observation values (Epoch: 2025-07-08T09:30:50.099Z)
Latitude
0.00001°
Longitude
-109.67356°
Altitude
2,779.981 km
Speed
7.655 km/s
True Right ascension
21h 18m 30s
True Declination
0° 00' 00"
Sunlit
Object was in full shadow at epoch
Visualization orbit readout
Latitude
-49.39567°
Longitude
157.78137°
Altitude
14,575.37 km
Speed
3.099 km/s
Apparent Right ascension
15h 24m 35s
Apparent Declination
-47° 18' 10"
Sunlit
Object is in daylight
Visualization observer readout
Local Sidereal Time
04:10:09
Azimuth
135.679° SSE
Elevation
-78.949°
Doppler factor
1
Orbital elements
Apogee altitude
14,942.664 km
Perigee altitude
313.779 km
Semi-major axis
14,006.359 km
Eccentricity
0.52222
Inclination
49.3557°
RAAN
319.6431°
Arg. of periapsis
77.5997°
True anomaly
Unknown
Mean anomaly
333.9718°
Eccentric anomaly
Unknown
Mean motion
1.30935 °/min
Orbital period
274.95 mins
BSTAR
0.0005075
Loading maneuver chart data...
Loading SW <> Apogee altitude chart data...
Loading historical data...
Loading historical data...
Loading historical data...
Loading historical data...
Loading historical data...
Loading historical data...
Loading historical data...
Other satellites on launch #65 in the year 2009 (2009-11-24 UTC)

BREEZE-M DEB (TANK) Visibility forecast

Observer location: undefined°, undefined°

Span
Click to sort rows by Start time (UTC) header in descending order
Start Az.
Max El. time (UTC)
Max El. Az.
Max El.
End time (UTC)
End Az.
18 mins2025-07-09 18:01:15.159Z301.732° NW2025-07-09 18:05:15.159Z153.728° SSE44.773°2025-07-09 18:19:15.159Z127.39° SE
5 mins2025-07-10 12:07:15.159Z241.489° WSW2025-07-10 12:11:15.159Z32.245° NE40.011°2025-07-10 12:12:15.159Z50.093° ENE
|